Content
SEND FEEDBACK

Daily
Averages
Monthly
Summary
United States of America

LIVINGSTON, MONTANA


Home > North America > United States > Montana
Elevation: 1419 meters     Latitude: 45 41N     Longitude: 110 26W

WEATHER
 
SELECT A DAY
Number of Records: 177,329;   Date Range: 1/1/95 - 7/23/14
 
SHARE

PRINT THIS DATA

[ ← Previous Day ]
WEATHER ALMANAC - 31 JANUARY, 2013
[ Next Day → ]
[ °F ]   °C
Weather ElementAverageHighLow
Temperature3.4 °C5.6 °C (1:53 pm)1.7 °C (12:53 am)
Dewpoint-3.6 °C-1.1 °C (4:53 pm)-5 °C (7:53 am)
Humidity60.4 %76 % (4:53 pm)51 % (1:53 pm)
Barometer1017.9 hPa1020 hPa (10:53 am)1015.6 hPa (12:53 am)
Wind Speed39.3 km/h51.8 km/h (9:53 pm)
Wind Gust72.3 km/h (2:53 pm)
Weather ElementAverage
Visibility15.8 km
Wind DirectionWSW (249.6 °)

Weather ElementTotal
Precipitation---
Heating Degree Days14.7 (Base 18.3)
Averaged from 24 records on 31 January, 2013
WEATHER CONDITIONS BREAKOUT
WIND DIRECTION BREAKOUT
WEATHER BY HOUR - 31 JANUARY, 2013
[ °F ]   °C
Local TimeTemperatureDewpointHumidityBarometerVisibilityWind DirectionWind SpeedGust SpeedPrecipitationEventsConditions
12:53 AM1.7 °C-3.9 °C67 %1015.6 hPa16.1 kmWSW (250°)46.3 km/h0 mmOvercast
1:53 AM2.2 °C-4.4 °C62 %1016.6 hPa14.5 kmWSW (250°)46.3 km/h57.5 km/h0 mmSnowLight Snow
2:53 AM2.2 °C-4.4 °C62 %1016.6 hPa16.1 kmWSW (250°)40.7 km/h55.5 km/h0 mmOvercast
3:53 AM2.2 °C-4.4 °C62 %1017.3 hPa16.1 kmWSW (250°)37 km/hOvercast
4:53 AM2.2 °C-3.9 °C64 %1017.9 hPa16.1 kmWSW (240°)33.3 km/hOvercast
5:53 AM2.2 °C-4.4 °C62 %1018.6 hPa16.1 kmWSW (250°)31.5 km/hOvercast
6:53 AM2.2 °C-4.4 °C62 %1019 hPa16.1 kmWSW (250°)35.2 km/h48.1 km/h0 mmOvercast
7:53 AM2.8 °C-5 °C57 %1019 hPa14.5 kmWest (260°)35.2 km/h0 mmSnowLight Snow
8:53 AM3.3 °C-5 °C55 %1019 hPa12.9 kmWest (260°)40.7 km/h51.8 km/h0 mmSnowLight Snow
9:53 AM3.3 °C-4.4 °C57 %1019.3 hPa16.1 kmWest (260°)42.6 km/h0 mmOvercast
10:53 AM2.8 °C-3.3 °C65 %1020 hPa16.1 kmWSW (250°)31.5 km/hOvercast
11:53 AM4.4 °C-3.3 °C58 %1019.3 hPa16.1 kmWSW (250°)42.6 km/hOvercast
12:53 PM5 °C-3.9 °C53 %1018.6 hPa16.1 kmWest (260°)33.3 km/hOvercast
1:53 PM5.6 °C-3.9 °C51 %1017.9 hPa16.1 kmWSW (250°)38.9 km/h50.1 km/hOvercast
2:53 PM5.6 °C-3.9 °C51 %1017.6 hPa16.1 kmWSW (240°)44.4 km/h72.3 km/hOvercast
3:53 PM4.4 °C-3.3 °C58 %1018.3 hPa16.1 kmWest (260°)40.7 km/h51.8 km/hOvercast
4:53 PM2.8 °C-1.1 °C76 %1019 hPa16.1 kmWest (270°)27.8 km/hOvercast
5:53 PM3.3 °C-2.2 °C68 %1018.6 hPa16.1 kmWest (260°)29.6 km/h42.6 km/hOvercast
6:53 PM4.4 °C-2.8 °C60 %1018.3 hPa16.1 kmWest (260°)38.9 km/h50.1 km/hOvercast
7:53 PM5 °C-3.3 °C55 %1017.9 hPa16.1 kmWSW (250°)40.7 km/h59.2 km/hOvercast
8:53 PM3.9 °C-2.8 °C62 %1017.3 hPa16.1 kmSW (230°)50.1 km/h62.9 km/hMostly Cloudy
9:53 PM3.9 °C-2.8 °C62 %1016.6 hPa16.1 kmSW (230°)51.8 km/h66.6 km/hMostly Cloudy
10:53 PM3.9 °C-3.3 °C60 %1017.3 hPa16.1 kmSW (230°)48.1 km/h59.2 km/hMostly Cloudy
11:53 PM3.9 °C-3.3 °C60 %1017.3 hPa16.1 kmSW (230°)35.2 km/h64.9 km/hOvercast
Hourly data recorded from KLVM, located 0 kilometers away from Livingston, Montana







STORIES FROM OUR PARTNERS